Location: Unspecified
(45.3712°N, 0.6436°E)
Time: 18:32:55
(UTC+02:00)

OTV 5 (USA 277) - Visible Passes

Search period start: 19 September 2018 00:00
Search period end: 29 September 2018 00:00
Orbit: 387 x 394 km, 54.5° (Epoch: 08 September)

Date Brightness Start Highest point End Pass type
(mag) Time Alt. Az. Time Alt. Az. Time Alt. Az.
26 Sep ? 07:05:26 10° S 07:08:01 23° SE 07:10:38 10° ENE visible
27 Sep ? 06:10:57 10° SE 06:11:57 11° SE 06:12:57 10° ESE visible
28 Sep ? 06:48:03 10° SSW 06:51:06 42° SE 06:54:10 10° ENE visible
